Terminal Aerodrome Forecast
Issued by NWS

Home | Current Version | Previous Version | Text Only | Print | Product List | Glossary On
Versions: 1 2 3 4 5 6 7 8 9 10 11 12 13 14
000
FTUS45 KRIW 260500
TAFWRL
TAF
KWRL 260535Z 2606/2706 35010KT P6SM VCSH SCT030 OVC040
     FM260900 VRB06KT 5SM -RA SCT010 BKN020 OVC030
     FM262100 33013KT P6SM VCSH SCT015 BKN025
     FM270300 32010KT P6SM VCSH BKN050=

USA.gov is the U.S. government's official web portal to all federal, state and local government web resources and services.